Preview of NWS' New Version of Forecast
This preview is not operational and should not be used for support decisions.
Latest weather observations around

Hancock, Houghton County Memorial Airport (KCMX)

Using English Units (Switch to International System of Units)
Date/ Time (EDT) Wind (mph) Vis. (mi) Weather Sky Cond. Temp (°F) Rel. Humidity Wind Chill (°F) Heat Index (°F) Pressure Precip. (in)
Air Dwpt 6 hour Altimeter (inHg) Sea level (inHg) 1 hr 3 hr 6 hr
Max Min
Jul 17 13:53 E 9 10 Clear CLR 74 60     62%   74 29.97 29.96      
Jul 17 12:53 E 9 10 Clear CLR 74 61     64%   74 29.97 29.96      
Jul 17 11:53 ESE 13 10 Clear CLR 76 61     60%   76 29.97 29.96      
Jul 17 10:53 ESE 8 10 Clear CLR 74 62     66%   74 29.98 29.97      
Jul 17 09:53 SSE 5 10 Clear CLR 69 62     78%     29.99 29.98      
Jul 17 09:11 ESE 5 10 Partly Cloudy SCT002 67 62     84%     29.97        
Jul 17 08:53 ESE 7 8 Mostly Cloudy BKN002 66 62     87%     29.96 29.95      
Jul 17 08:50 ESE 6 7 Mostly Cloudy BKN002 64 63     94%     29.96        
Jul 17 08:41 E 7 6 Fog/Mist SCT002 65 61     87%     29.96        
Jul 17 07:53 E 3 10 Mostly Clear FEW065 65 62     90%     29.96 29.95      
Jul 17 06:53 Calm 10 Clear CLR 62 59     90%     29.97 29.96      
Jul 17 05:53 Calm 10 Clear CLR 59 56     90%     29.96 29.95      
Jul 17 04:53 Calm 10 Clear CLR 58 55     90%     29.94 29.93      
Jul 17 03:53 NE 3 10 Clear CLR 59 57     93%     29.94 29.93      
Jul 17 02:53 NE 3 10 Clear CLR 62 59     90%     29.93 29.91      
Jul 17 01:53 NE 6 10 Clear   60 57     90%     29.93 29.91      
Jul 17 00:53 WNW 3 10 Clear CLR 63 58     84%     29.92 29.91      
Jul 16 23:53 NNW 6 10 Clear CLR 65 59     81%     29.91 29.9      
Jul 16 22:53 NW 7 10 Clear CLR 66 59     78%     29.91 29.9      
Jul 16 21:53 NW 3 10 Clear CLR 69 61     75%     29.89 29.87      
Jul 16 18:53 WNW 13 10 Clear CLR 76 60     58%   76 29.87 29.85      
Jul 16 17:53 WNW 15 10 Clear CLR 76 59     56%   76 29.86 29.85      
Jul 16 16:53   10 Clear CLR 77 60     56%   77 29.86 29.84      
Jul 16 15:53 WNW 14 10 Clear CLR 78 60     54%   78 29.86 29.84      
Jul 16 14:53 WNW 14 10 Clear CLR 81 59     47%   81 29.85 29.83      
Jul 16 13:53 W 15 10 Clear CLR 80 60     51%   81 29.85 29.83      
Jul 16 12:53 WSW 10 10 Clear CLR 78 64     62%   79 29.85 29.83      
Jul 16 11:53 W 14 10 Clear CLR 77 64     64%   77 29.84 29.82      
Jul 16 10:53 W 14 10 Mostly Clear FEW013 FEW045 76 66     71%   77 29.82 29.8      
Jul 16 09:53 W 16 10 Partly Cloudy FEW011 SCT042 74 66     76%   75 29.81 29.8      
Jul 16 09:22 W 17 10 Mostly Cloudy SCT010 BKN041 73 66     79%   74 29.81        
Jul 16 09:03 W 17 10 Mostly Cloudy BKN010 73 66     79%   74 29.8        
Jul 16 08:53 W 17 10 Partly Cloudy SCT010 72 66     82%   73 29.8 29.79      
Jul 16 07:53 W 17 10 Clear CLR 71 65     81%   72 29.78 29.77      
Jul 16 07:34   10 Mostly Clear FEW012 70 65     84%     29.77        
Jul 16 07:08 W 17 10 Mostly Cloudy BKN013 70 64     81%     29.77        
Jul 16 06:53 W 13 10 Mostly Clear FEW013 70 64     81%     29.76 29.74      
Jul 16 06:21 W 14 10 Partly Cloudy SCT015 70 64     81%     29.75        
Jul 16 05:53   10 Cloudy OVC015 71 64     79%   72 29.75 29.72      
Jul 16 05:37   10 Mostly Cloudy BKN016 71 64     79%   72 29.74        
Jul 16 04:53 W 15 10 Clear CLR 70 64     81%     29.74 29.72      
Jul 16 03:53 W 16 10 Clear CLR 70 65     84%     29.74 29.72      
Jul 16 02:53 WSW 9 10 Clear CLR 70 64     81%     29.75 29.72      
Jul 16 01:53 SW 15 10 Mostly Clear FEW120 71 64     79%   72 29.76 29.73     1
Jul 16 00:53 SSW 9 10 Clear   67 63     87%     29.77 29.75      
Jul 15 23:53 SSW 11 10 Clear CLR 67 64     90%     29.77 29.75      
Jul 15 23:41 SSW 11 10 Mostly Clear FEW003 67 64     90%     29.77        
Jul 15 22:53 SSW 14 10 Cloudy OVC002 67 64     90%     29.78 29.76 0 1  
Jul 15 22:37 S 13 8 Cloudy OVC002 67 65     93%     29.78   0    
Jul 15 22:27 S 11 4 Thunderstorms and Fog/Mist OVC002 67 65     93%     29.76   0    
Jul 15 22:22 S 10 1.25 Thunderstorms and Rain and Fog/Mist BKN002 OVC008 67 65     93%     29.76   0    
Jul 15 22:15 S 10 1.75 Light Rain and Fog/Mist BKN002 OVC010 67 65     93%     29.76   0    
Jul 15 21:53 S 13 6 Rain and Fog/Mist BKN002 OVC026 67 65     93%     29.8 29.78 0    
Jul 15 21:48 SSW 11 6 Rain and Fog/Mist BKN002 OVC026 66 64     94%     29.81   0    
Jul 15 21:39 SSW 8 5 Thunderstorms and Rain and Fog/Mist SCT002 BKN015 OVC110 67 64     90%     29.79   0    
Jul 15 21:29 S 8 8 Thunderstorms and Rain BKN003 OVC110 67 64     90%     29.79   0    
Jul 15 21:26 S 8 9 Rain SCT003 OVC110 67 64     90%     29.78   0    
Jul 15 21:13 Calm 10 Light Rain OVC110 66 64     93%     29.77   0    
Jul 15 21:05 WNW 6 9 Light Rain FEW085 OVC110 66 64     93%     29.77   0    
Jul 15 20:53 WNW 10 9 Thunderstorms and Rain FEW033 BKN100 OVC120 66 64     93%     29.78 29.77 1    
Jul 15 20:37 NW 18 3 Thunderstorms and Rain and Fog/Mist FEW004 BKN030 OVC080 66 64     93%     29.77   1    
Jul 15 20:28   1.5 Thunderstorms and Heavy Rain and Fog/Mist FEW005 BKN030 OVC070 66 64     93%     29.77   0    
Jul 15 20:18   1.75 Thunderstorms and Heavy Rain and Fog/Mist BKN036 BKN065 OVC085 66 64     93%     29.78   0    
Jul 15 20:08   3 Thunderstorms and Heavy Rain and Fog/Mist BKN030 OVC070 66 63     90%     29.77   0    
Jul 15 20:02   2 Thunderstorms and Heavy Rain and Fog/Mist FEW012 BKN026 OVC065 66 63     90%     29.76   0    
Jul 15 19:53 NW 21 0.5 Thunderstorms and Heavy Rain and Fog BKN018 BKN035 OVC110 65 62     90%     29.76   0   0
Jul 15 19:45   0.75 Thunderstorms and Heavy Rain and Fog/Mist SCT012 BKN027 OVC110 66 62     87%     29.78   0    
Notice The following observation data may not be complete
Jul 15 19:42   1.75 Thunderstorms and Rain FEW012 BKN043 OVC110   62      %     29.8   0    
Jul 15 19:13 SSW 9 10 Mostly Clear FEW050 85 70     61%   89 29.71        
Jul 15 18:53 S 11 10 Partly Cloudy SCT055 SCT070 86 70     59%   91 29.73 29.71      
Jul 15 17:53 S 14 10 Mostly Cloudy BKN049 90 69     50%   95 29.74 29.71      
Jul 15 16:53 S 8 10 Clear CLR 90 69     50%   95 29.75 29.72      
Jul 15 15:53 SSW 11 10 Clear CLR 88 67     50%   91 29.8 29.78      
Jul 15 14:53 S 7 10 Clear CLR 85 68     57%   88 29.83 29.8      
Jul 15 13:53 SSE 10 10 Mostly Clear FEW024 83 69     63%   87 29.84 29.82      
Jul 15 12:53 SSE 7 10 Partly Cloudy SCT021 81 68     65%   84 29.88 29.86      
Jul 15 12:45 SSE 8 10 Mostly Cloudy BKN020 81 68     65%   84 29.88        
Jul 15 12:19 SE 7 10 Partly Cloudy SCT018 79 68     69%   80 29.88        
Jul 15 11:53 SSW 7 10 Mostly Cloudy BKN016 78 68     71%   79 29.91 29.89      
Jul 15 10:53 SSW 9 10 Clear CLR 77 68     74%   78 29.92 29.9      
Jul 15 10:19 SSW 7 10 Mostly Clear FEW009 75 68     79%   76 29.93        
Jul 15 09:53 3 10 Clear CLR 73 67     81%   74 29.92 29.91      
Jul 15 08:53 S 5 10 Mostly Clear FEW003 70 67     90%     29.93 29.91      
Jul 15 08:49 S 6 10 Mostly Clear FEW003 70 66     88%     29.93        
Jul 15 07:53 Calm 10 Clear CLR 71 66     84%   72 29.91 29.9     0
Jul 15 06:53 Calm 10 Mostly Cloudy SCT095 BKN110 69 66     90%     29.91 29.89 0    
Jul 15 05:53 WSW 7 6 Rain and Fog/Mist FEW055 BKN090 OVC110 70 66     87%     29.94 29.92 0    
Jul 15 04:53 SW 6 10 Light Rain FEW095 SCT120 71 64     79%   72 29.94 29.92 0 0  
Jul 15 04:24 SSW 3 10 Light Rain FEW060 SCT100 BKN110 72 63     73%   72 29.93   0    
Jul 15 04:09 WSW 3 10 Mostly Cloudy SCT041 SCT060 BKN075 73 62     68%   73 29.94        
Jul 15 03:53 SW 9 10 Cloudy FEW037 BKN044 OVC075 73 62     68%   73 29.95 29.93      
Jul 15 02:53 S 5 10 Mostly Cloudy BKN065 69 61     75%     29.94 29.92      
Jul 15 01:53 S 9 10 Mostly Clear FEW048 71 58     63%   71 29.96 29.93      
Jul 15 00:53 SE 5 10 Clear CLR 68 56     65%     29.97        
Jul 14 23:53 E 3 10 Clear CLR 66 54     65%     29.97        
Jul 14 22:53 E 5 10 Cloudy BKN060 OVC075 69 52     54%     30        
Jul 14 21:53 ENE 8 10 Cloudy BKN060 OVC080 70 51     51%     29.99 29.98      
Jul 14 20:53 E 7 10 Clear CLR 72 52     49%   71 30        
Jul 14 19:53 E 6 10 Clear CLR 73 55     53%   73 30 29.99      
Jul 14 18:53 E 8 10 Clear CLR 74 54     50%   73 30.01 30      
Jul 14 17:53 E 9 10 Clear CLR 76 55     48%   75 30.03 30.02      
Jul 14 16:53 ESE 9 10 Clear CLR 80 55     42%   80 30.05 30.04      
Jul 14 15:53 ENE 3 10 Clear CLR 83 58     43%   83 30.05 30.04      
Jul 14 14:53 N 9 10 Clear CLR 83 57     41%   82 30.07 30.06      
Jul 14 13:53 W 6 10 Mostly Cloudy BKN055 83 56     40%   82 30.08 30.07      
Jul 14 12:53 S 7 10 Clear CLR 81 55     41%   81 30.09 30.08      
Jul 14 11:53 SSW 6 10 Clear CLR 76 54     47%   75 30.11 30.1      
Jul 14 10:53 S 6 10 Clear CLR 73 53     50%   72 30.11 30.11      
Jul 14 09:53 S 6 10 Clear CLR 70 51     51%     30.11 30.11      
Jul 14 08:53 SSW 5 10 Clear CLR 68 49     50%     30.12 30.11      
Jul 14 07:53 Calm 10 Clear CLR 64 46     52%     30.11 30.1      
Jul 14 06:53 WSW 3 10 Clear CLR 61 43     52%     30.11 30.1      
Jul 14 05:53 Calm 10 Partly Cloudy SCT070 57 45     64%     30.11 30.11      
Jul 14 04:53 WNW 3 10 Clear CLR 52 45     77%     30.09 30.09      
Jul 14 03:53 NW 3 10 Clear CLR 52 46     80%     30.09 30.09      
Jul 14 02:53 Calm 10 Clear CLR 52 46     80%     30.08 30.07      
Jul 14 01:53 NW 6 10 Clear CLR 56 46     69%     30.09 30.08      
Jul 14 00:53 NW 7 10 Clear CLR 59 45     60%     30.09 30.09      
Jul 13 23:53 NW 8 10 Clear CLR 60 45     57%     30.08 30.08      
Jul 13 22:53 NW 7 10 Clear CLR 58 46     65%     30.08 30.08      
Jul 13 21:53 NW 6 10 Clear CLR 61 50     67%     30.06 30.06      
Jul 13 20:53 W 8 10 Clear CLR 70 49     47%     30.05 30.04      
Jul 13 19:53 W 10 10 Clear CLR 72 49     44%   71 30.05 30.04      
Jul 13 18:53 W 11 10 Clear CLR 73 50     44%   72 30.05 30.04      
Jul 13 17:53 WNW 11 10 Clear CLR 74 49     41%   73 30.04 30.03      
Jul 13 16:53 WNW 10 10 Clear CLR 75 50     41%   74 30.04 30.03      
Jul 13 15:53 NW 11 10 Clear CLR 75 49     40%   74 30.04 30.03      
Jul 13 14:53 NW 15 10 Clear CLR 75 48     38%   74 30.05 30.04      
Jul 13 13:53 N 14 10 Clear CLR 73 50     44%   72 30.03 30.02      
Jul 13 12:53 NW 13 10 Clear CLR 71 53     53%   70 30.01 30.01      
Jul 13 11:53 NW 10 10 Mostly Clear FEW055 70 53     55%     30 29.99      
Jul 13 10:53 NW 11 10 Cloudy BKN047 OVC065 67 54     63%     29.99 29.98      
Jul 13 09:53 NNW 10 10 Clear CLR 66 54     65%     29.97 29.96      
Jul 13 08:53 NW 10 10 Cloudy OVC065 62 53     72%     29.95 29.94      
Jul 13 07:53 WNW 10 10 Cloudy OVC060 61 52     72%     29.94 29.93      
Jul 13 06:53 WNW 7 10 Clear CLR 58 52     81%     29.91 29.9      
Jul 13 05:53 NW 7 10 Mostly Clear FEW042 58 52     81%     29.89 29.88      
Jul 13 03:53 NW 9 10 Mostly Cloudy BKN065 BKN080 63 53     70%     29.87 29.85      
Jul 13 02:53 NW 9 10 Mostly Cloudy SCT060 BKN090 63 54     72%     29.86 29.84      
Jul 13 01:53 NNW 8 10 Clear   64 54     70%     29.85 29.84      
Jul 13 00:53 NNW 8 10 Clear CLR 65 55     70%     29.84 29.83      
Jul 12 23:53 NNW 9 10 Mostly Cloudy BKN070 67 57     71%     29.83 29.82      
Jul 12 22:53 WNW 9 10 Mostly Cloudy BKN070 71 63     76%   71 29.82 29.81      
Jul 12 21:53 W 7 10 Clear CLR 72 63     73%   72 29.8 29.79      
Jul 12 20:53 W 7 10 Clear CLR 77 63     62%   77 29.79 29.78      
Jul 12 19:53 W 8 10 Clear CLR 80 63     56%   81 29.78 29.77      
Jul 12 18:53 W 13 10 Clear CLR 79 63     58%   79 29.78 29.77      
Jul 12 17:53 W 16 10 Clear CLR 79 64     60%   79 29.79 29.78      
Jul 12 16:53 W 16 10 Clear CLR 79 64     60%   79 29.79 29.78      
Jul 12 15:53   10 Clear CLR 78 62     58%   78 29.79 29.78      
Jul 12 14:53 W 20 10 Clear and Windy CLR 80 63     56%   81 29.79 29.78      
Jul 12 13:53   10 Clear CLR 79 62     56%   79 29.79 29.78     0
Jul 12 12:53 WSW 18 10 Mostly Clear FEW090 FEW110 77 61     58%   77 29.79 29.78      
Jul 12 11:53 SW 6 10 Cloudy SCT037 OVC090 69 61     75%     29.79 29.78 0    
Jul 12 11:20 SSW 10 10 Cloudy SCT024 BKN050 OVC090 65 60     84%     29.8   0    
Jul 12 11:13 SSW 9 2 Thunderstorms and Rain and Fog/Mist SCT020 BKN048 OVC110 63 59     87%     29.8   0    
Jul 12 11:05 S 13 1.25 Thunderstorms and Heavy Rain and Fog/Mist SCT027 BKN048 OVC100 63 59     87%     29.78   0    
Jul 12 11:01 SSW 13 2.5 Heavy Rain FEW030 BKN065 OVC100 63 58     84%     29.81   0    
Jul 12 10:53 W 8 10 Cloudy FEW055 BKN080 OVC110 64 57     78%     29.83 29.83 0 0  
Jul 12 09:53 S 5 10 Light Rain BKN070 OVC095 63 56     78%     29.85 29.85 0    
Jul 12 08:53 SSW 6 10 Clear CLR 64 52     65%     29.87 29.86      
Jul 12 07:53 SW 5 10 Clear CLR 61 52     72%     29.87        
Jul 12 06:53 SSW 5 10 Partly Cloudy SCT120 60 49     67%     29.89        
Jul 12 05:53 Calm 10 Clear CLR 55 48     77%     29.89        
Jul 12 04:53 W 3 10 Clear CLR 55 48     77%     29.89        
Jul 12 03:53 W 3 10 Clear CLR 57 47     69%     29.89        
Jul 12 02:53 W 3 10 Clear CLR 58 47     67%     29.91        
Jul 12 01:53 W 3 10 Clear CLR 56 47     72%     29.92 29.91      
Jul 12 00:53 Calm 10 Clear CLR 59 48     67%     29.93 29.92      
Jul 11 23:53 WNW 5 10 Clear CLR 58 49     72%     29.93 29.93      
Jul 11 22:53 WNW 6 10 Clear CLR 58 49     72%     29.94 29.94      
Jul 11 21:53 Calm 10 Clear CLR 63 50     63%     29.95 29.94      
Jul 11 20:53 W 6 10 Clear CLR 68 48     49%     29.96 29.96      
Jul 11 19:53 W 9 10 Clear CLR 71 49     45%   70 29.98 29.97      
Jul 11 18:53 NW 8 10 Clear CLR 73 48     41%   72 29.98 29.98      
Jul 11 17:53 NW 9 10 Clear CLR 73 48     41%   72 29.99 29.98      
Jul 11 16:53 NW 11 10 Clear CLR 72 48     43%   71 30.01 30.01      
Jul 11 15:53 NNW 14 10 Clear CLR 72 49     44%   71 30.02 30.01      
Jul 11 14:53 NNW 13 10 Clear CLR 70 48     46%     30.03 30.03      
Jul 11 13:53 NNW 13 10 Clear CLR 69 47     45%     30.03 30.03      
Jul 11 12:53 N 13 10 Clear CLR 67 46     47%     30.03 30.03      
Jul 11 11:53 NW 15 10 Clear CLR 65 45     48%     30.02 30.02      
Jul 11 10:53 NW 17 10 Clear CLR 62 46     56%     30.01 30.01      
Jul 11 09:53 NW 16 10 Clear CLR 61 46     58%     30.01 30.01      
Jul 11 08:53 NW 14 10 Clear CLR 59 46     62%     29.98 29.98      
Jul 11 07:53 NW 14 10 Clear CLR 56 47     72%     29.96 29.96      
Jul 11 06:53 NW 16 10 Clear CLR 55 47     74%     29.94 29.93      
Jul 11 05:53   10 Clear CLR 54 46     74%     29.91 29.91      
Jul 11 04:53   10 Clear CLR 54 48     80%     29.9 29.89      
Jul 11 03:53 NW 18 10 Clear CLR 56 50     80%     29.89 29.88      
Jul 11 02:53 NW 18 10 Clear CLR 58 53     84%     29.88 29.87      
Jul 11 01:53 NW 14 10 Clear CLR 60 54     80%     29.88 29.87      
Jul 11 00:53 NW 10 10 Mostly Clear FEW080 60 55     83%     29.87 29.85      
Jul 10 23:53 WNW 10 10 Mostly Cloudy FEW038 BKN060 BKN075 61 57     87%     29.86 29.85      
Jul 10 21:53 WNW 13 10 Partly Cloudy FEW048 SCT070 64 58     81%     29.81 29.8      
Jul 10 20:53 WNW 14 10 Mostly Clear FEW055 67 58     73%     29.8 29.78      
Jul 10 18:53   10 Cloudy OVC085 68 61     78%     29.77 29.76 0    
Jul 10 18:10 NW 15 10 Light Rain FEW050 BKN070 OVC085 67 63     87%     29.77   0    
Jul 10 18:01   2.5 Rain FEW050 BKN070 OVC090 67 62     84%     29.77   0    
Jul 10 17:53   3 Rain FEW055 SCT070 OVC090 67 62     84%     29.77 29.76 0    
Jul 10 17:34   10 Light Rain FEW060 SCT070 OVC090 69 63     81%     29.78   0    
Jul 10 15:53 NW 17 10 Cloudy SCT070 OVC095 73 62     68%   73 29.75 29.74      
Jul 10 14:53   10 Clear CLR 79 60     52%   79 29.73 29.72      
Jul 10 13:53   10 Clear CLR 79 63     58%   79 29.73 29.72      
Jul 10 12:53 WNW 15 10 Clear CLR 77 65     66%   78 29.74 29.72      
Jul 10 11:53 WNW 13 10 Clear CLR 76 65     69%   76 29.75 29.73      
Jul 10 11:06 W 14 10 Partly Cloudy SCT022 72 63     73%   72 29.74        
Jul 10 10:33 W 14 10 Cloudy SCT011 OVC020 72 64     76%   72 29.74        
Jul 10 09:53 W 13 10 Cloudy BKN012 OVC019 71 65     81%   72 29.74 29.72      
Jul 10 09:31 WSW 11 10 Mostly Cloudy BKN012 BKN017 71 65     81%   72 29.73        
Jul 10 08:53 SW 14 10 Partly Cloudy FEW009 SCT021 70 64     81%     29.73 29.72      
Jul 10 08:38 WSW 14 10 Partly Cloudy FEW009 SCT022 70 65     84%     29.73        
Jul 10 08:09 WSW 11 10 Cloudy BKN007 OVC026 69 64     84%     29.73        
Jul 10 07:53 WSW 14 10 Mostly Cloudy SCT008 BKN028 69 65     87%     29.73 29.71     0
Jul 10 07:50 WSW 10 10 Mostly Cloudy SCT008 BKN028 70 64     83%     29.73        
Jul 10 07:22 SW 8 7 Cloudy SCT009 BKN014 OVC033 68 64     87%     29.73        
Jul 10 06:53 SSW 9 6 Fog/Mist BKN037 OVC045 67 64     90%     29.72 29.7      
Jul 10 05:53 S 8 8 Clear CLR 66 63     90%     29.72 29.7      
Jul 10 04:53 S 7 9 Mostly Cloudy SCT029 BKN035 67 63     87%     29.73 29.71   0  
Jul 10 03:53 ESE 7 8 Cloudy FEW026 OVC038 66 63     90%     29.75 29.73      
Jul 10 03:44 ESE 7 9 Cloudy SCT027 OVC040 67 63     87%     29.75        
Notice The following observation data may not be complete
Jul 10 03:14   10 Cloudy BKN029 OVC080          %              
Jul 10 02:53 ESE 7 10 Cloudy SCT018 OVC033 66 62     87%     29.77 29.75 0    
Jul 10 02:33 ENE 6 3 Light Rain and Fog/Mist BKN019 OVC025 64 61     90%     29.78   0    
Jul 10 02:20 3 1.5 Rain SCT019 BKN025 OVC042 66 61     84%     29.8   0    
Jul 10 02:15 Calm 4 Light Rain and Fog/Mist FEW021 BKN025 OVC044 66 62     87%     29.8   0    
Jul 10 02:08 Calm 2.5 Rain and Fog/Mist FEW027 BKN031 OVC043 66 62     87%     29.8   0    
Jul 10 01:53 S 11 5 Rain and Fog/Mist SCT044 BKN055 OVC070 67 63     87%     29.81 29.79 0   0
Jul 10 00:53 SE 6 7 Mostly Cloudy FEW043 SCT050 BKN100 72 59     64%   72 29.82 29.8 0    
Jul 09 23:53 SSE 7 7 Light Rain CLR 74 58     57%   74 29.85 29.83 0    
Jul 09 22:53 SSE 6 7 Mostly Clear FEW120 74 59     60%   74 29.85 29.83      
Jul 09 21:53 SE 7 7 Clear CLR 74 60     62%   74 29.86 29.84      
Jul 09 20:53 E 5 6 Haze CLR 74 60     62%   74 29.86 29.84      
Jul 09 19:53 E 6 7 Clear CLR 76 61     60%   76 29.86 29.84      
Jul 09 18:53 E 7 8 Clear CLR 80 62     54%   81 29.87 29.85      
Jul 09 17:53 E 8 10 Clear CLR 83 61     48%   83 29.89 29.87      
Jul 09 16:53 ESE 8 10 Clear CLR 84 62     48%   85 29.9 29.88      
Jul 09 15:53 SE 11 10 Clear CLR 84 61     46%   84 29.91 29.89      
Jul 09 14:53 S 9 10 Mostly Clear FEW045 86 61     43%   86 29.93 29.92      
Jul 09 13:53 SE 9 10 Mostly Clear FEW038 83 62     49%   84 29.94 29.93      
Jul 09 12:53 SSW 10 10 Clear CLR 81 63     54%   82 29.95 29.94      
Jul 09 10:53 S 8 10 Clear CLR 76 63     64%   76 29.96 29.95      
Jul 09 09:53 SSE 6 9 Clear CLR 73 62     68%   73 29.97 29.96      
Jul 09 08:53 S 6 8 Clear CLR 69 61     75%     29.98 29.97      
Jul 09 07:53 SSE 3 7 Clear CLR 67 60     79%     29.98 29.97      
Jul 09 06:53 S 3 6 Haze CLR 64 59     84%     29.99 29.98      
Jul 09 05:53 SSW 3 8 Clear CLR 64 59     84%     29.98 29.97      
Jul 09 04:53 Calm 8 Clear CLR 63 58     84%     29.98 29.97      
Jul 09 03:53 S 3 8 Clear CLR 64 57     78%     29.99 29.97      
Jul 09 02:53 S 8 8 Clear CLR 65 57     76%     29.98 29.96      
Jul 09 01:53 SE 5 8 Clear CLR 60 53     78%     29.98 29.97      
Jul 09 00:53 ENE 8 10 Clear CLR 60 52     75%     30 29.99      
Jul 08 23:53 ENE 10 9 Clear CLR 62 52     70%     29.99 29.98      
Jul 08 22:53 E 8 9 Clear CLR 62 51     67%     29.99 29.98      
Jul 08 21:53 E 7 8 Clear CLR 63 52     67%     29.98 29.98      
Jul 08 20:53 ENE 7 6 Haze CLR 67 52     59%     29.99 29.98      
Jul 08 19:53 E 6 7 Clear CLR 71 53     53%   70 29.99 29.99      
Jul 08 18:53 E 9 8 Clear CLR 73 54     51%   72 30 30      
Jul 08 17:53 E 8 6 Haze CLR 75 55     50%   75 30.03 30.03      
Jul 08 16:53 ESE 7 5 Haze CLR 78 56     47%   78 30.04 30.04      
Jul 08 15:53 SSE 9 4 Haze CLR 80 54     41%   80 30.05 30.04      
Jul 08 14:53 SSE 8 5 Haze CLR 81 57     44%   81 30.06 30.05      
Jul 08 13:53 SSE 7 4 Haze CLR 79 53     41%   78 30.06 30.06      
Jul 08 12:53 SSE 5 5 Haze CLR 76 54     47%   75 30.07 30.07      
Jul 08 11:53 SSE 6 7 Clear CLR 74 56     53%   74 30.08 30.07      
Jul 08 10:53 Calm 10 Clear CLR 70 57     63%     30.07 30.07      
Jul 08 09:53 Calm 10 Clear CLR 65 55     70%     30.08 30.08      
Jul 08 08:53 SSW 3 10 Clear   59 53     81%     30.08 30.09      
Jul 08 07:53 S 3 10 Mostly Clear FEW048 56 53     90%     30.08 30.08      
Jul 08 07:21 Calm 3 Fog/Mist FEW015 52 50     93%     30.08        
Jul 08 07:19 Calm 1.25 Fog/Mist FEW011 53 50     89%     30.08        
Jul 08 07:15 Calm 0.5 Fog VV008 52 50     93%     30.08        
Jul 08 07:02 Calm 0.25 Fog VV010 50 48     93%     30.08        
Jul 08 06:53 Calm 0.25 Fog VV004 49 47     93%     30.08 30.08      
Jul 08 06:51 SSE 3 0.25 Fog VV004 48 46     93% 47   30.08        
Jul 08 06:47 SE 3 0.5 Fog VV008 48 46     93% 47   30.08        
Jul 08 06:44 Calm 1.75 Fog/Mist CLR 48 45     89%     30.08        
Jul 08 05:53 Calm 10 Clear CLR 47 44     90%     30.09 30.09      
Jul 08 04:53 Calm 10 Clear CLR 47 43     86%     30.08 30.08      
Jul 08 03:53 Calm 10 Cloudy OVC037 47 43     86%     30.07 30.07      
Jul 08 02:53 Calm 10 Cloudy OVC039 48 45     89%     30.08 30.08      
Jul 08 01:53 NE 3 10 Cloudy OVC044 51 47     86%     30.08 30.08      
Jul 08 00:53 ENE 3 10 Cloudy OVC055 52 49     89%     30.07 30.07      
Jul 07 23:53 ENE 6 10 Cloudy OVC055 53 50     89%     30.07 30.07      
Jul 07 22:53 E 3 10 Cloudy OVC055 56 53     90%     30.08 30.08      
Jul 07 21:53 E 3 10 Cloudy OVC055 59 53     81%     30.07 30.08      
Jul 07 20:53 E 6 10 Cloudy OVC055 62 52     70%     30.08 30.08      
Jul 07 19:53 ESE 5 10 Clear   67 51     57%     30.09 30.09      
Jul 07 18:53 SE 7 10 Mostly Clear FEW065 70 49     47%     30.09 30.09      
Jul 07 17:53 SSE 5 10 Clear CLR 73 49     43%   72 30.1 30.1      
Jul 07 16:53 3 10 Clear CLR 72 48     43%   71 30.1 30.11      
Jul 07 15:53 S 8 10 Clear CLR 72 51     48%   71 30.11 30.11      
Jul 07 14:53 SSE 7 10 Clear CLR 72 46     40%   71 30.12 30.12      
Jul 07 13:53   10 Clear CLR 70 51     51%     30.14 30.14      
Jul 07 12:53 SSE 3 10 Clear CLR 68 51     55%     30.15 30.16      
Jul 07 11:53 Calm 10 Clear   66 51     59%     30.15 30.16      
Notice The following observation data may not be complete
Jul 07 10:53 E 3 10 Clear CLR          %     30.16 30.16      
Jul 07 09:53 Calm 10 Mostly Clear FEW065 61 50     67%     30.17 30.18      
Jul 07 08:53 WNW 5 10 Cloudy OVC065 56 49     77%     30.16 30.17      
Jul 07 07:53 NW 5 10 Cloudy OVC065 52 46     80%     30.16 30.16      
Jul 07 06:53 WNW 6 10 Cloudy OVC060 52 45     77%     30.15 30.16      
Jul 07 05:53 NW 3 10 Cloudy OVC065 51 45     79%     30.15 30.16      
Jul 07 04:53 NW 5 10 Mostly Cloudy BKN080 49 44     83% 47   30.15 30.16      
Jul 07 03:53 NW 5 10 Mostly Cloudy BKN060 BKN085 49 44     83% 47   30.16 30.16      
Jul 07 02:53 NW 5 10 Cloudy OVC060 48 44     86% 46   30.16 30.16      
Jul 07 01:53 NW 7 10 Cloudy OVC060 49 43     80% 46   30.16 30.16      
Jul 07 00:53 Calm 10 Cloudy OVC055 48 44     86%     30.16 30.16      
Jul 06 23:53 Calm 10 Cloudy OVC055 49 45     86%     30.16 30.16      
Jul 06 22:53 Calm 10 Cloudy OVC055 56 46     69%     30.16 30.16      
Jul 06 21:53 N 5 10 Cloudy OVC055 53 49     86%     30.15 30.16      
Jul 06 20:53 N 3 10 Mostly Cloudy BKN065 60 51     72%     30.16 30.16      
Jul 06 19:53 NE 3 10 Mostly Clear FEW037 63 47     56%     30.17 30.16      
Jul 06 18:53 ENE 5 8 Clear CLR 66 46     48%     30.18 30.18      
Jul 06 17:53 NE 7 10 Clear CLR 66 43     43%     30.2 30.2      
Jul 06 15:53 E 10 10 Clear CLR 69 48     47%     30.21 30.2      
Jul 06 14:53 ENE 8 10 Clear CLR 71 46     41%   70 30.21 30.2      
Jul 06 11:53 E 9 10 Clear CLR 69 47     45%     30.21 30.2      
Jul 06 09:53 E 10 10 Clear CLR 68 48     49%     30.21 30.2      
Jul 06 08:53 E 11 10 Clear CLR 66 47     50%     30.19 30.18      
Jul 06 07:53 ENE 9 10 Cloudy OVC070 64 47     54%     30.17 30.16     0
Jul 06 06:53 E 8 10 Partly Cloudy SCT070 64 46     52%     30.14        
Jul 06 05:53 NE 10 10 Clear   66 47     50%     30.12        
Jul 06 04:53 NNE 13 10 Clear CLR 67 49     52%     30.09     0  
Jul 06 03:53 N 7 10 Mostly Cloudy BKN110 65 54     68%     30.09        
Jul 06 02:53 NNW 3 10 Partly Cloudy FEW060 SCT090 SCT120 63 56     78%     30.08   0    
Jul 06 01:53 NW 7 10 Light Rain OVC110 64 57     78%     30.1 30.09 0   0
Jul 06 00:53 NW 9 10 Mostly Cloudy SCT075 BKN120 66 55     68%     30.1 30.08      
Jul 05 23:53 NW 10 10 Clear CLR 66 56     70%     30.1 30.09      
Jul 05 22:53 NW 9 10 Clear CLR 65 56     73%     30.09 30.08      
Jul 05 21:53 NW 10 10 Clear CLR 66 59     78%     30.08 30.07      
Jul 05 20:53 WNW 10 10 Clear CLR 68 59     73%     30.06 30.06      
Jul 05 19:53 NW 8 10 Clear CLR 71 58     63%   71 30.05 30.04      
Jul 05 18:53 NW 8 10 Clear CLR 78 55     45%   78 30.04 30.03      
Jul 05 17:53 NW 7 10 Clear   78 56     47%   78 30.03 30.02      
Jul 05 16:53 NNW 9 9 Clear CLR 76 58     54%   76 30.05 30.03      
Jul 05 15:53 NW 10 10 Clear CLR 79 58     49%   79 30.05 30.03      
Jul 05 14:53 N 8 9 Clear CLR 79 58     49%   79 30.04 30.03      
Jul 05 13:53 NW 9 10 Clear CLR 78 60     54%   78 30.05 30.04      
Jul 05 12:53 NNW 11 10 Clear CLR 77 61     58%   77 30.05 30.04      
Jul 05 11:53 NNW 6 10 Clear CLR 76 62     62%   76 30.03 30.02      
Jul 05 10:53 NNW 9 10 Clear CLR 72 63     73%   72 30.02 30.01      
Jul 05 10:35 NW 10 10 Partly Cloudy SCT004 70 63     78%     30.03        
Jul 05 09:53 WNW 9 10 Mostly Cloudy BKN004 68 63     84%     30.02 30.01      
Jul 05 09:07 NNW 6 8 Mostly Cloudy BKN002 65 62     90%     29.99        
Jul 05 09:00 NW 8 2 Fog/Mist OVC002 65 62     90%     29.99        
Jul 05 08:53 NW 8 0.5 Fog VV002 65 63     93%     30 29.99      
Jul 05 08:34 NW 9 0.25 Fog VV002 65 63     93%     29.99        
Jul 05 07:53 NW 8 0.25 Fog VV001 64 62     93%     29.96 29.95      
Jul 05 07:37 NW 8 0.25 Fog VV002 62 60     93%     29.96        
May 15 13:53 ESE 11 10 Clear CLR 51 24     35%     30.12 30.13      
May 15 08:53 E 5 10 Clear CLR 45 23     42% 43   30.09 30.1      
May 14 20:53 NW 6 10 Clear CLR 67 41     39%     29.78 29.77      
Notice The following observation data may not be complete
May 14 18:53 WNW 10 10 Clear CLR   40      %     29.78 29.78      
Notice The following observation data may not be complete
May 14 07:53   10 Clear CLR          %              
May 14 02:53 W 14 10 Clear CLR 62 36     38%     29.82 29.81      
May 13 15:53   10 Cloudy OVC110 69 27     21%     29.88 29.88      
Notice The following observation data may not be complete
May 12 12:53   10 Clear CLR          %              
May 11 20:53 ESE 9 10 Clear CLR 39 21     48% 33   30.11 30.14      
Notice The following observation data may not be complete
Jun 12 07:53 WNW 14 10 Cloudy OVC004   59      %     29.81 29.81      
Notice The following observation data may not be complete
Jun 12 04:53   10 Clear CLR   59      %     29.77 29.76      
Jun 12 01:53 Calm 10 Cloudy OVC024 63 60     90%     29.75 29.75     0
Jun 11 22:53 WNW 6 10 Clear CLR 62 58     86%     29.72 29.71   0  
Jun 11 06:53 NW 7 10 Clear CLR 59 50     72%     29.76        
Jun 09 18:53 ESE 9 10 Clear CLR 63 36     37%     29.82 29.82      
Jun 08 13:53 ESE 5 10 Mostly Cloudy BKN120 70 57     63%     29.86 29.85 0   0
Notice The following observation data may not be complete
Jun 08 08:53 SW 3 10 Partly Cloudy SCT080   52      %     29.93 29.92      
Jun 08 03:53 Calm 10 Clear CLR 55 44     66%     29.94 29.93      
Jun 08 01:53 Calm 10 Clear CLR 54 43     66%     29.96 29.96      
Jun 07 22:53 Calm 10 Clear CLR 55 47     74%     29.99        
Jun 07 15:53   10 Clear CLR 77 44     31%   76 30.06 30.06      
Jun 06 06:53 NW 9 10 Clear CLR 51 39     63%     30.12 30.13